Regional Weather Roundup
Issued by NWS

Home | Current Version | Previous Version | Text Only | Print | Product List | Glossary On
Versions: 1 2 3 4 5 6 7 8 9 10 11 12 13 14 15 16 17 18 19 20 21 22 23 24 25 26 27 28 29 30 31 32 33 34 35 36 37 38 39 40 41 42 43 44 45 46 47 48 49 50
000
ASUS44 KLUB 291401
RWRTX
WEST TEXAS WEATHER ROUNDUP
NATIONAL WEATHER SERVICE LUBBOCK TX
900 AM CDT TUE JUL 29 2014

NOTE: "FAIR" INDICATES FEW OR NO CLOUDS BELOW 12,000 FEET WITH NO
SIGNIFICANT WEATHER AND/OR OBSTRUCTIONS TO VISIBILITY.

TXZ004-006>008-010-012-014-016-OKZ002-291500-
TEXAS PANHANDLE/OKLAHOMA PANHANDLE

CITY           SKY/WX    TMP DP  RH WIND       PRES   REMARKS
AMARILLO       CLOUDY    68  60  75 S12       30.28R
BORGER         CLOUDY    69  60  73 CALM      30.26R
CANADIAN       LGT RAIN  69  66  91 CALM      30.23R
DALHART        CLOUDY    67  63  87 S12       30.28S
DUMAS          CLOUDY    65  60  81 S9        30.27S
GUYMON         CLOUDY    64  60  87 S13G23    30.23R
HEREFORD       CLOUDY    66  62  84 S8        30.29S
PAMPA          CLOUDY    67  59  76 SE3       30.28R
$$

TXZ026-029-035-045-048-291500-
SOUTHERN PANHANDLE/SOUTH PLAINS/ROLLING PLAINS

CITY           SKY/WX    TMP DP  RH WIND       PRES   REMARKS
CHILDRESS      CLOUDY    74  64  71 SE6       30.22R
SEMINOLE       SUNNY     70  60  69 NE9       30.26S
LUBBOCK        CLOUDY    66  63  90 S3        30.27R
$$

TXZ052-054-060>062-072-078-127-140-154-169-291500-
PERMIAN BASIN/CONCHO VALLEY/BIG COUNTRY/EDWARDS PLATEAU

CITY           SKY/WX    TMP DP  RH WIND       PRES   REMARKS
ABILENE        SUNNY     76  60  57 E9        30.19R
BIG SPRING     SUNNY     79  64  60 E10       30.21S
BRADY          SUNNY     77  70  78 E9        30.16R
BROWNWOOD      SUNNY     79  63  57 E10       30.16S
JUNCTION       SUNNY     76  66  71 E3        30.15R
MIDLAND        SUNNY     77  65  66 E10       30.19S
ODESSA         SUNNY     77  63  61 SE10      30.20S
SAN ANGELO     SUNNY     77  67  71 E6        30.16R
WINK           MOSUNNY   80  62  54 E13       30.15R
$$

TXZ055-058-074-075-080-082-291500-
FAR WEST/SOUTHWEST MOUNTAINS/TRANS PECOS

CITY           SKY/WX    TMP DP  RH WIND       PRES   REMARKS
ALPINE         SUNNY     74  55  51 W5        30.31S
DRYDEN           N/A     83  66  56 SE9       30.13R
EL PASO        TSTM      68  65  90 NE20      30.22R
FORT STOCKTON  SUNNY     78  59  51 SE5       30.18R
GUADALUPE PASS PTSUNNY   71  55  56 NE5       30.33S
MARFA          SUNNY     70  57  64 NE6       30.31R
PRESIDIO       FAIR      84  55  36 NE6       30.14R
$$

TXZ014-016-019-021>030-083-291500
TEXAS TECH WEST TEXAS MESONET/TEXAS PANHANDLE/NORTHERN SOUTH PLAINS

CITY           SKY/WX    TMP DP  RH WIND       PRES   REMARKS
ABERNATHY 5ENE   N/A     67  58  72 S6        30.28S
AMARILLO 9NNE    N/A     68  59  73 S12       30.26S
AMARILLO 7SSE    N/A     67  59  77 S9        30.29R
AMHERST 1NE      N/A     65  59  81 SE7       30.29R
BOOTLEG 11WNW    N/A     64  63  97 S12       30.31F
CANADIAN 6E      N/A     67  65  91 SE3       30.22S
CAPROCK CYN SP   N/A     70  61  74 S5        30.25R
CHILDRESS 2NNE   N/A     73  65  75 SE2       30.21R
CLARENDON 2WSW   N/A     69  62  78 S3        30.24S
DIMMITT 2NE      N/A     64  58  80 S8        30.29S
FLOYDADA 2NNE    N/A     67  60  77 SE7       30.27R
FRIONA 2NE       N/A     65  60  83 S8        30.31S
GOODLETT 3W      N/A     72  64  77 E2        30.20R
HART 3N          N/A     66  57  73 S8        30.29R
HEREFORD 2NW     N/A     64  58  81 S6        30.30R
MEMPHIS 1NE      N/A     71  66  84 NE1       30.22R
MULESHOE 2SSW    N/A     66  62  87 SE5       30.30R
OLTON 6S         N/A     65  57  73 S7        30.29R
PALO DURO SP     N/A     67  59  74 S7        30.29R
PAMPA 2E         N/A     67  61  80 SE9       30.26S
PLAINVIEW 1S     N/A     67  60  79 SE5       30.27R
SILVERTON 7ESE   N/A     67  61  81 SE7       30.27R
TULIA 2ENE       N/A     66  62  85 SE5       30.28R
TURKEY 2WSW      N/A     71  62  74 S3        30.23S
UMBARGER 3NNE    N/A     66  58  73 S12       30.29S
$$

TXZ033>036-039>041-045>048-291500
TEXAS TECH WEST TEXAS MESONET/SOUTH PLAINS

CITY           SKY/WX    TMP DP  RH WIND       PRES   REMARKS
AIKEN 3WSW       N/A     66  61  83 SE7       30.29R
ANDREWS 2NE      N/A     75  61  61 NE7       30.22S
ANTON 6SSW       N/A     65  61  87 SE7       30.28R
BROWNFIELD 2S    N/A     67  58  72 NE9       30.27S
DENVR CTY 7WNW   N/A     68  61  79 NE10      30.26S
GAIL 2ESE        N/A     73  59  62 NE6       30.21S
LAMESA 2SE       N/A     72  59  64 N6        30.24R
LEVELLAND 4S   LGT RAIN  65  63  92 S7        30.29R
LUBBOCK 3WNW     N/A     65  61  87 SE5       30.27S
MORTON 1ENE    LGT RAIN  65  63  93 S10       30.28S
ODONNELL 1N      N/A     69  58  68 NE7       30.25S
PLAINS 3N      LGT RAIN  65  63  94 N10       30.28S
RALLS 1SE        N/A     69  61  75 SE3       30.27S
REESE CENTER     N/A     65  62  91 SW3       30.28R
SEAGRAVES 1SW    N/A     69  58  69 NE8       30.26S
SEMINOLE 2NNE    N/A     70  59  68 N13       30.25S
SLATON 2NE       N/A     69  60  73 NE3       30.27R
SNYDER 3E        N/A     71  61  69 E7        30.20S
SUNDOWN 8SW    LGT RAIN  66  64  93 SW3       30.29R
TAHOKA 3NNE      N/A     69  59  70 N6        30.25F
WOLFFORTH 6SSW   N/A     65  62  92 E2        30.28S
$$

TXZ031-032-036>038-042>044-291500-
TEXAS TECH WEST TEXAS MESONET/ROLLING PLAINS

CITY           SKY/WX    TMP DP  RH WIND       PRES   REMARKS
ASPERMONT 3NE    N/A     78  63  60 E8        30.20R
FLUVANNA 3WNW    N/A     69  59  70 E6        30.22S
GRAHAM 5SSW      N/A     72  59  63 E3        30.24R
GUTHRIE 10WSW    N/A     73  62  67 E5        30.20S
HASKELL 1NW      N/A     73  61  65 E6        30.18S
JAYTON 1SSE      N/A     73  62  68 E8        30.20S
KNOX CITY 3NW    N/A     77  62  59 E5        30.19R
LK A HENRY 1NW   N/A     71  61  71 E6        30.21S
NORTHFIELD 1S    N/A     72  64  76 CALM      30.22R
ODELL 4ENE       N/A     67  62  83 SE15      30.20R
PADUCAH 10SW     N/A     74  62  65 SE7       30.21R
POST 1NE         N/A     70  59  69 NE3       30.23S
RRING SPRGS 3N   N/A     72  63  73 SE6       30.23S
SEYMOUR 3NW      N/A     75  64  68 E7        30.18S
SPUR 1W          N/A     71  61  69 E5        30.21S
WEINERT 2NNE     N/A     77  63  63 E7        30.19R
WHITE RVR 6NE    N/A     70  61  71 E3        30.24R
$$

TXZ052-054-060>062-072-078-127-140-154-169-291500-
TEXAS TECH WEST TEXAS MESONET/PERMIAN BASIN/
CONCHO VALLEY/BIG COUNTRY/EDWARDS PLATEAU

CITY           SKY/WX    TMP DP  RH WIND       PRES   REMARKS
COYANOSA 2N      N/A     80  60  49 E8        30.15S
MERTZON 3NNE     N/A     76  66  71 E3        30.18R
SAN ANGELO 7NW   N/A     77  65  67 E10       30.17R
STRLNG CT 4WSW   N/A     77  66  69 E7        30.19S
ST LAWRNCE 5SW   N/A     75  64  69 E7        30.19R
SWEETWATR 11SW   N/A     76  64  67 SE12      30.21S
WALL 1E          N/A     76  66  71 E5        30.17R
$$

TXZ055-058-074-075-080-082-291500-
TEXAS TECH WEST TEXAS MESONET/FAR WEST/SOUTHWEST MOUNTAINS/TRANS PECOS

CITY           SKY/WX    TMP DP  RH WIND       PRES   REMARKS
PRSMN GAP BBNP   N/A     80  58  45 NE9       30.16R
GUADLPE MTN NP   N/A     70  56  61 NW2       30.34R
$$



USA.gov is the U.S. government's official web portal to all federal, state and local government web resources and services.